Hourly Weather Rudnya Marimonova

Today, 20 April, Tuesday

Time Temperature Precipitation Wind Pressure Humidity
00:00 +7°C° 0 mm 3 mps 751 mmHg 88%
01:00 +5°C° 0 mm 3 mps 750 mmHg 89%
02:00 +5°C° 0 mm 3 mps 750 mmHg 89%
03:00 +5°C° 0 mm 3 mps 750 mmHg 89%
04:00 +5°C° 0 mm 3 mps 749 mmHg 89%
05:00 +5°C° 0 mm 3 mps 749 mmHg 89%
06:00 +5°C° 0 mm 3 mps 749 mmHg 87%
07:00 +5°C° 0 mm 4 mps 749 mmHg 85%
08:00 +6°C° 0 mm 4 mps 749 mmHg 84%
09:00 +6°C° 0 mm 4 mps 749 mmHg 80%
10:00 +7°C° 0 mm 4 mps 748 mmHg 77%
11:00 +8°C° 0 mm 4 mps 748 mmHg 74%
12:00 +8°C° 0.1 mm 4 mps 748 mmHg 71%
13:00 +10°C° 0.1 mm 4 mps 747 mmHg 69%
14:00 +10°C° 0.1 mm 4 mps 747 mmHg 67%
15:00 +10°C° 0 mm 4 mps 747 mmHg 70%
16:00 +8°C° 0 mm 4 mps 746 mmHg 73%
17:00 +8°C° 0 mm 4 mps 746 mmHg 76%
18:00 +7°C° 0 mm 4 mps 746 mmHg 79%
19:00 +7°C° 0 mm 3 mps 746 mmHg 83%
20:00 +5°C° 0 mm 3 mps 746 mmHg 87%
21:00 +5°C° 0 mm 3 mps 746 mmHg 88%
22:00 +5°C° 0 mm 3 mps 745 mmHg 89%
23:00 +5°C° 0 mm 3 mps 745 mmHg 90%

Tomorrow, 21 April, Wednesday

Time Temperature Precipitation Wind Pressure Humidity
00:00 +5°C° 0.1 mm 3 mps 745 mmHg 91%
01:00 +5°C° 0.1 mm 3 mps 745 mmHg 91%
02:00 +4°C° 0.1 mm 3 mps 745 mmHg 92%
03:00 +4°C° 0.1 mm 3 mps 745 mmHg 92%
04:00 +4°C° 0.1 mm 3 mps 745 mmHg 92%
05:00 +4°C° 0.1 mm 3 mps 745 mmHg 92%
06:00 +4°C° 0.1 mm 3 mps 745 mmHg 92%
07:00 +4°C° 0.1 mm 3 mps 745 mmHg 92%
08:00 +4°C° 0.1 mm 3 mps 746 mmHg 92%
09:00 +4°C° 0.1 mm 3 mps 746 mmHg 89%
10:00 +5°C° 0.1 mm 3 mps 746 mmHg 87%
11:00 +6°C° 0.1 mm 2 mps 746 mmHg 85%
12:00 +6°C° 0 mm 2 mps 746 mmHg 82%
13:00 +7°C° 0 mm 2 mps 747 mmHg 79%
14:00 +8°C° 0 mm 2 mps 747 mmHg 76%
15:00 +9°C° 0 mm 1 mps 747 mmHg 72%
16:00 +10°C° 0 mm 1 mps 747 mmHg 67%
17:00 +11°C° 0 mm 1 mps 747 mmHg 63%
18:00 +9°C° 0 mm 1 mps 747 mmHg 68%
19:00 +8°C° 0 mm 1 mps 747 mmHg 73%
20:00 +7°C° 0 mm 1 mps 748 mmHg 77%
21:00 +6°C° 0 mm 2 mps 748 mmHg 80%
22:00 +5°C° 0 mm 2 mps 748 mmHg 83%
23:00 +5°C° 0 mm 2 mps 748 mmHg 87%

Day after tomorrow, 22 April, Thursday

Time Temperature Precipitation Wind Pressure Humidity
00:00 +5°C° 0 mm 2 mps 748 mmHg 89%
01:00 +4°C° 0 mm 2 mps 748 mmHg 91%
02:00 +4°C° 0 mm 2 mps 748 mmHg 93%
03:00 +4°C° 0 mm 2 mps 748 mmHg 93%
04:00 +4°C° 0 mm 2 mps 748 mmHg 94%
05:00 +3°C° 0 mm 3 mps 749 mmHg 94%
06:00 +5°C° 0 mm 3 mps 749 mmHg 90%
07:00 +8°C° 0 mm 3 mps 749 mmHg 85%
08:00 +8°C° 0 mm 4 mps 749 mmHg 80%
09:00 +11°C° 0.2 mm 4 mps 749 mmHg 74%
10:00 +12°C° 0.2 mm 4 mps 749 mmHg 67%
11:00 +14°C° 0.2 mm 4 mps 749 mmHg 61%
12:00 +15°C° 0.3 mm 4 mps 749 mmHg 56%
13:00 +15°C° 0.3 mm 5 mps 749 mmHg 51%
14:00 +16°C° 0.3 mm 5 mps 749 mmHg 47%
15:00 +15°C° 0.1 mm 4 mps 749 mmHg 52%
16:00 +15°C° 0.1 mm 4 mps 749 mmHg 57%
17:00 +14°C° 0.1 mm 3 mps 749 mmHg 62%
18:00 +13°C° 0.1 mm 3 mps 749 mmHg 69%
19:00 +11°C° 0.1 mm 3 mps 749 mmHg 77%
20:00 +10°C° 0.1 mm 3 mps 749 mmHg 85%
21:00 +9°C° 0 mm 3 mps 749 mmHg 87%
22:00 +8°C° 0 mm 4 mps 749 mmHg 88%
23:00 +8°C° 0 mm 4 mps 749 mmHg 90%

23 April, Friday

Time Temperature Precipitation Wind Pressure Humidity
00:00 +7°C° 0 mm 4 mps 749 mmHg 92%
01:00 +8°C° 0 mm 3 mps 749 mmHg 93%
02:00 +8°C° 0 mm 3 mps 749 mmHg 95%
03:00 +7°C° 0 mm 2 mps 749 mmHg 95%
04:00 +7°C° 0 mm 2 mps 749 mmHg 95%
05:00 +8°C° 0 mm 1 mps 749 mmHg 95%
06:00 +7°C° 0.1 mm 2 mps 749 mmHg 92%
07:00 +7°C° 0.1 mm 3 mps 749 mmHg 89%
08:00 +6°C° 0.1 mm 4 mps 749 mmHg 86%
09:00 +5°C° 0.5 mm 4 mps 750 mmHg 89%
10:00 +4°C° 0.5 mm 4 mps 750 mmHg 92%
11:00 +1°C° 0.5 mm 4 mps 750 mmHg 95%
12:00 +2°C° 0.6 mm 3 mps 751 mmHg 94%
13:00 +2°C° 0.6 mm 3 mps 751 mmHg 93%
14:00 +4°C° 0.6 mm 2 mps 751 mmHg 92%
15:00 +4°C° 0.2 mm 2 mps 751 mmHg 89%
16:00 +5°C° 0.2 mm 2 mps 751 mmHg 87%
17:00 +5°C° 0.2 mm 2 mps 750 mmHg 84%
18:00 +5°C° 0 mm 2 mps 750 mmHg 87%
19:00 +4°C° 0 mm 3 mps 750 mmHg 89%
20:00 +3°C° 0 mm 3 mps 750 mmHg 92%
21:00 +3°C° 0 mm 3 mps 750 mmHg 92%
22:00 +2°C° 0 mm 3 mps 750 mmHg 93%
23:00 +2°C° 0 mm 3 mps 750 mmHg 93%

24 April, Saturday

Time Temperature Precipitation Wind Pressure Humidity
00:00 +1°C° 0 mm 3 mps 750 mmHg 92%
01:00 +1°C° 0 mm 3 mps 749 mmHg 92%
02:00 0°C° 0 mm 3 mps 749 mmHg 91%
03:00 0°C° 0 mm 3 mps 749 mmHg 92%
04:00 0°C° 0 mm 3 mps 749 mmHg 93%
05:00 +1°C° 0 mm 3 mps 749 mmHg 93%
06:00 0°C° 0.1 mm 4 mps 749 mmHg 92%
07:00 0°C° 0.1 mm 4 mps 749 mmHg 91%
08:00 0°C° 0.1 mm 5 mps 750 mmHg 90%
09:00 +1°C° 0.3 mm 6 mps 750 mmHg 81%
10:00 +2°C° 0.3 mm 6 mps 750 mmHg 72%
11:00 +3°C° 0.3 mm 7 mps 750 mmHg 63%
12:00 +3°C° 0.1 mm 7 mps 750 mmHg 58%
13:00 +4°C° 0.1 mm 7 mps 750 mmHg 54%
14:00 +5°C° 0.1 mm 7 mps 750 mmHg 50%
15:00 +5°C° 0.2 mm 6 mps 750 mmHg 52%
16:00 +4°C° 0.2 mm 6 mps 750 mmHg 55%
17:00 +5°C° 0.2 mm 5 mps 751 mmHg 57%
18:00 +3°C° 0 mm 5 mps 751 mmHg 63%
19:00 +3°C° 0 mm 4 mps 751 mmHg 68%
20:00 +1°C° 0 mm 3 mps 751 mmHg 74%
21:00 +1°C° 0 mm 3 mps 751 mmHg 77%
22:00 +1°C° 0 mm 3 mps 751 mmHg 81%
23:00 0°C° 0 mm 3 mps 751 mmHg 84%

25 April, Sunday

Time Temperature Precipitation Wind Pressure Humidity
00:00 0°C° 0 mm 3 mps 751 mmHg 85%
01:00 0°C° 0 mm 3 mps 750 mmHg 87%
02:00 0°C° 0 mm 3 mps 750 mmHg 89%
03:00 0°C° 0 mm 3 mps 750 mmHg 88%
04:00 +1°C° 0 mm 3 mps 750 mmHg 88%
05:00 +1°C° 0 mm 3 mps 750 mmHg 88%
06:00 +1°C° 0 mm 4 mps 750 mmHg 81%
07:00 +1°C° 0 mm 4 mps 750 mmHg 75%
08:00 +2°C° 0 mm 5 mps 750 mmHg 69%
09:00 +3°C° 0.2 mm 5 mps 750 mmHg 61%
10:00 +4°C° 0.2 mm 6 mps 750 mmHg 53%
11:00 +5°C° 0.2 mm 6 mps 751 mmHg 46%
12:00 +5°C° 0 mm 6 mps 751 mmHg 44%
13:00 +5°C° 0 mm 7 mps 750 mmHg 43%
14:00 +6°C° 0 mm 7 mps 750 mmHg 41%
15:00 +5°C° 0.1 mm 7 mps 750 mmHg 47%
16:00 +5°C° 0.1 mm 6 mps 750 mmHg 52%
17:00 +5°C° 0.1 mm 6 mps 750 mmHg 58%
18:00 +4°C° 0.1 mm 6 mps 750 mmHg 60%
19:00 +3°C° 0.1 mm 6 mps 750 mmHg 63%
20:00 +3°C° 0.1 mm 6 mps 750 mmHg 65%
21:00 +2°C° 0 mm 6 mps 750 mmHg 70%
22:00 +2°C° 0 mm 5 mps 751 mmHg 75%
23:00 +1°C° 0 mm 5 mps 751 mmHg 79%
Show more